User: anonymous   Login
Location: Unspecified
(0.0000°N, 0.0000°E)
Time: 04:03:59
(UTC+00:00)
Language:

SEEDS - Orbit

View from above orbital plane
View from above orbital plane
View from above satellite
View from above satellite

Ground track
Ground track

The orbit data is extracted from the following two-line orbital elements,

1 32791U 08021J   18022.52535879 +.00000351 +00000-0 +41351-4 0  9997
2 32791 097.5464 046.6195 0014442 138.9600 221.2708 14.90450471527733
Epoch (UTC): 22 January 2018 12:36:30
Eccentricity: 0.0014442
inclination: 97.5464°
perigee height: 586 km
apogee height: 606 km
right ascension of ascending node: 46.6195°
argument of perigee: 138.9600°
revolutions per day: 14.90450471
mean anomaly at epoch: 221.2708°
orbit number at epoch: 52773

The dashed part of the orbit path shows where the satellite is in the earth's shadow,  

DLR